Back to catalog

EXPLORER 31

ISIS-X

AliveScienceUNKNOWN
NORAD 1806·PAYLOAD·🇺🇸 United States

Launched Nov 29, 1965 from Vandenberg Space Force Base

Loading…

Next Passes (next 24 hours)

TLE

FreshSource: Space-Track

Epoch: Sep 14, 2026, 00:39 UTC

1 01806U 65098B   26257.02739471  .00000950  00000-0  33236-3 0  9992
2 01806  79.7720 276.5432 1422549 320.5086  30.0226 12.08393595659423

Track EXPLORER 31 in real time with AllMySat

Download on the App Store